Location: Mount Kobau Star Party
(49.1167°N, 119.7333°W)
Time: 04:33:04
(UTC-07:00)

ISS - Visible Passes

Search period start: 24 October 2017 00:00
Search period end: 03 November 2017 00:00
Orbit: 401 x 408 km, 51.6° (Epoch: 25 October)

Date Brightness Start Highest point End Pass type
(mag) Time Alt. Az. Time Alt. Az. Time Alt. Az.
29 Oct -0.7 06:30:06 10° SSE 06:31:31 12° SE 06:32:56 10° ESE visible
30 Oct -2.3 07:12:07 10° SW 07:15:08 37° SSE 07:18:11 10° E visible
31 Oct -1.6 06:20:14 10° SSW 06:22:54 24° SE 06:25:34 10° E visible
01 Nov -1.1 05:29:36 13° SSE 05:30:43 15° SE 05:32:37 10° ESE visible
01 Nov -3.5 07:03:29 10° WSW 07:06:43 68° SSE 07:09:57 10° ENE visible
02 Nov -2.9 06:12:31 21° SSW 06:14:21 44° SSE 06:17:28 10° ENE visible
